DW4028 Attleboro MA US current weather conditions

sailwx.info

Wind from 299

Air temperature -2.8° C
Dewpoint -5.3° C

Last reported at 2019-Dec-11 22:01 UTC.
Time now 2019-Dec-11 22:32 UTC

Location: N 41°55' W 071°17'.
View on Google Maps.

See reports from other nearby stations

  
Tides and Currents Weather Stations Pressure Air Temp Water Temp Dewpoint Dewpoint Depression Visibility Wind Speed Wind Dir Waves Ship Positions
date/time (UTC)wind fromknots sea level pressurealtimeterstation pressurevisibilityair tempwater tempwave heightnotes
2019-Dec-11 22:01 299 -2.8
2019-Dec-11 21:50 299 -2.8
2019-Dec-11 21:45 299 -2.2
2019-Dec-11 21:40 299 -2.2
2019-Dec-11 21:35 299 -2.2
2019-Dec-11 21:31 299 -1.7
2019-Dec-11 21:25 299 -1.7
2019-Dec-11 21:20 299 -1.7
2019-Dec-11 21:16 299 -1.7
2019-Dec-11 21:10 299 -1.1
2019-Dec-11 21:05 297 -1.1
2019-Dec-11 21:00 259 -1.1
2019-Dec-11 20:55 284 -1.1
2019-Dec-11 20:50 284 -1.1
2019-Dec-11 20:46 284 -1.1
2019-Dec-11 20:40 283 -1.1
2019-Dec-11 20:35 304 -1.1
2019-Dec-11 20:30 274 -0.6
2019-Dec-11 20:25 291 -0.6
2019-Dec-11 20:20 290 -0.6
2019-Dec-11 20:15 293 -0.6
2019-Dec-11 20:10 287 -0.6
2019-Dec-11 20:05 300 0 gusting 3 -0.6
2019-Dec-11 20:00 285 -0.6
2019-Dec-11 19:55 285 -0.6
2019-Dec-11 19:50 280 -0.6
2019-Dec-11 19:46 304 -0.6
2019-Dec-11 19:40 297 -0.6
2019-Dec-11 19:35 302 -0.6
2019-Dec-11 19:30 302 0 gusting 6 -0.6
2019-Dec-11 19:25 295 0 gusting 4 -0.0
2019-Dec-11 19:15 307 -0.6
2019-Dec-11 19:10 300 -0.6
2019-Dec-11 19:05 295 -0.6
2019-Dec-11 18:55 298 -0.0
2019-Dec-11 18:45 302 -0.0
2019-Dec-11 18:40 292 -0.0
2019-Dec-11 18:35 314 -0.0
2019-Dec-11 18:25 296 -0.0
2019-Dec-11 18:20 285 -0.0
2019-Dec-11 18:10 217 0 gusting 3 -0.0
2019-Dec-11 18:00 145 -0.6
2019-Dec-11 17:55 283 -0.6
2019-Dec-11 17:45 269 -1.1
2019-Dec-11 17:40 283 -1.1
2019-Dec-11 17:30 297 -0.6
2019-Dec-11 17:20 284 -1.1
2019-Dec-11 17:15 286 -1.1
2019-Dec-11 17:10 285 -1.1
2019-Dec-11 17:05 283 -1.1
2019-Dec-11 17:00 295 -1.1
2019-Dec-11 16:55 285 -1.7
2019-Dec-11 16:50 279 -1.1
2019-Dec-11 16:45 281 -1.7
2019-Dec-11 16:36 281 -1.7
2019-Dec-11 16:33 275 -1.7
2019-Dec-11 16:26 275 -1.7
2019-Dec-11 16:21 273 -1.7
2019-Dec-11 16:18 273 -1.7
2019-Dec-11 16:11 276 -2.2
2019-Dec-11 16:06 276 -2.2
2019-Dec-11 16:04 275 -2.2
2019-Dec-11 16:00 275 -2.2
2019-Dec-11 15:51 278 -2.2
2019-Dec-11 15:46 288 -2.2
2019-Dec-11 15:40 297 -1.7
2019-Dec-11 15:35 293 -1.7
2019-Dec-11 15:32 293 -2.2
2019-Dec-11 15:25 287 -2.2
2019-Dec-11 15:21 290 -2.2
2019-Dec-11 15:19 290 -2.2
2019-Dec-11 15:11 290 -2.2
2019-Dec-11 15:06 290 -2.2
2019-Dec-11 15:01 290 -2.2
2019-Dec-11 14:56 290 -2.2
2019-Dec-11 14:50 290 -2.2
2019-Dec-11 14:47 290 -2.2
2019-Dec-11 14:40 290 -2.2
2019-Dec-11 14:36 290 -2.2
2019-Dec-11 14:32 290 -2.2
2019-Dec-11 14:26 307 -2.2
2019-Dec-11 14:20 279 -2.2
2019-Dec-11 14:16 279 -2.2
2019-Dec-11 14:10 290 -2.2
2019-Dec-11 14:05 286 -2.2
2019-Dec-11 14:02 286 -2.2
2019-Dec-11 13:55 286 -2.2
2019-Dec-11 13:50 288 -2.2
2019-Dec-11 13:48 259 -2.2
2019-Dec-11 13:40 285 -2.2
2019-Dec-11 13:35 318 -2.2
2019-Dec-11 13:31 274 -2.2
2019-Dec-11 13:25 274 -2.2
2019-Dec-11 13:20 274 -2.2
2019-Dec-11 13:18 274 -2.2
2019-Dec-11 13:10 276 -2.2
2019-Dec-11 13:05 276 -2.2
2019-Dec-11 13:01 276 -2.2
2019-Dec-11 12:55 294 -1.7
2019-Dec-11 12:51 304 -1.7
2019-Dec-11 12:48 289 0 gusting 3 -1.7
2019-Dec-11 12:40 302 -1.7
2019-Dec-11 12:35 301 -1.7
2019-Dec-11 12:31 275 -1.7
2019-Dec-11 12:25 283 -1.7
2019-Dec-11 12:20 283 -1.7
2019-Dec-11 12:16 270 -1.7
2019-Dec-11 12:10 270 -1.7
2019-Dec-11 12:05 269 -1.7
2019-Dec-11 12:01 320 -1.7
2019-Dec-11 11:55 320 -1.7
2019-Dec-11 11:50 320 -1.7
2019-Dec-11 11:47 334 -1.7
2019-Dec-11 11:40 334 -1.7
2019-Dec-11 11:35 300 -1.7
2019-Dec-11 11:31 075 -1.7
2019-Dec-11 11:25 018 -1.7
2019-Dec-11 11:20 333 -1.7
2019-Dec-11 11:16 015 -1.7
2019-Dec-11 11:10 307 -1.1
2019-Dec-11 11:05 311 -1.1
2019-Dec-11 11:01 005 -1.1
2019-Dec-11 10:55 323 -1.1
2019-Dec-11 10:50 308 -0.6
2019-Dec-11 10:46 295 -0.6
2019-Dec-11 10:40 326 -0.6
2019-Dec-11 10:35 288 -0.6
2019-Dec-11 10:31 275 0 gusting 3 -0.6
2019-Dec-11 10:25 310 -0.6
2019-Dec-11 10:20 311 0 gusting 4 -0.6
2019-Dec-11 10:16 304 0 gusting 3 -0.0
2019-Dec-11 10:10 295 -0.0
2019-Dec-11 10:05 298 -0.0
2019-Dec-11 10:01 293 -0.0
2019-Dec-11 09:55 352 -0.0
2019-Dec-11 09:50 021 -0.0
2019-Dec-11 09:45 309 -0.0
2019-Dec-11 09:40 011 -0.0
2019-Dec-11 09:35 011 -0.0
2019-Dec-11 09:30 011 -0.0
2019-Dec-11 09:25 291 -0.0
2019-Dec-11 09:20 291 -0.0
2019-Dec-11 09:15 291 -0.0
2019-Dec-11 09:10 291 -0.0
2019-Dec-11 09:00 291 0.6
2019-Dec-11 08:55 291 0.6
2019-Dec-11 08:50 291 0.6
2019-Dec-11 08:45 291 0.6
2019-Dec-11 08:40 291 0.6
2019-Dec-11 08:35 276 1.1
2019-Dec-11 08:25 282 1.1
2019-Dec-11 08:20 309 1.1
2019-Dec-11 08:15 309 1.1
2019-Dec-11 08:10 294 1.1
2019-Dec-11 08:05 295 1.1
2019-Dec-11 07:56 290 1.1
2019-Dec-11 07:50 288 1.7
2019-Dec-11 07:49 289 1.7
2019-Dec-11 07:42 312 1.7
2019-Dec-11 07:35 288 1.7
2019-Dec-11 07:31 304 1.7
2019-Dec-11 07:26 297 1.7
2019-Dec-11 07:21 321 1.7
2019-Dec-11 07:17 296 2.2
2019-Dec-11 07:11 302 2.2
2019-Dec-11 07:02 271 0 gusting 3 2.2
2019-Dec-11 06:56 306 2.2
2019-Dec-11 06:50 273 2.2
2019-Dec-11 06:48 305 0 gusting 3 2.2
2019-Dec-11 06:41 316 2.8
2019-Dec-11 06:35 310 2.8
2019-Dec-11 06:33 302 2.8
2019-Dec-11 06:26 275 2.8
2019-Dec-11 06:21 273 3.3
2019-Dec-11 06:16 272 3.3
2019-Dec-11 06:10 266 3.3
2019-Dec-11 06:05 266 3.3
2019-Dec-11 06:02 266 3.3
2019-Dec-11 05:55 295 3.3
2019-Dec-11 05:50 289 3.3
2019-Dec-11 05:46 289 3.3
2019-Dec-11 05:40 289 3.3
2019-Dec-11 05:35 289 3.3
2019-Dec-11 05:31 289 3.3
2019-Dec-11 05:25 290 3.9
2019-Dec-11 05:20 302 3.9
2019-Dec-11 05:16 302 3.9
2019-Dec-11 05:10 302 3.9
2019-Dec-11 05:05 302 3.9
2019-Dec-11 05:02 302 3.9
2019-Dec-11 04:55 277 3.9
2019-Dec-11 04:50 277 3.9
2019-Dec-11 04:47 294 3.9
2019-Dec-11 04:40 308 3.9
2019-Dec-11 04:35 299 3.9
2019-Dec-11 04:31 320 4.4
2019-Dec-11 04:25 285 0 gusting 5 4.4
2019-Dec-11 04:20 304 0 gusting 5 4.4
2019-Dec-11 04:16 284 0 gusting 3 4.4
2019-Dec-11 04:10 345 0 gusting 3 5.0
2019-Dec-11 04:05 300 5.0
2019-Dec-11 04:01 006 0 gusting 3 5.0
2019-Dec-11 03:55 350 5.6
2019-Dec-11 03:50 303 5.6
2019-Dec-11 03:45 321 5.6
2019-Dec-11 03:40 304 0 gusting 3 5.6
2019-Dec-11 03:35 297 5.6
2019-Dec-11 03:31 292 0 gusting 3 5.6
2019-Dec-11 03:25 294 5.6
2019-Dec-11 03:20 308 6.1
2019-Dec-11 03:15 355 6.1
2019-Dec-11 03:10 294 6.1
2019-Dec-11 03:05 289 6.1
2019-Dec-11 03:00 312 0 gusting 4 6.1
2019-Dec-11 02:50 319 0 gusting 3 6.1
2019-Dec-11 02:45 326 6.1
2019-Dec-11 02:40 289 1 gusting 4 6.7
2019-Dec-11 02:35 300 1 gusting 3 6.7
2019-Dec-11 02:25 319 6.7
2019-Dec-11 02:20 302 6.7
2019-Dec-11 02:15 303 6.7
2019-Dec-11 02:10 303 6.7
2019-Dec-11 02:05 302 6.7
2019-Dec-11 01:56 304 6.7
2019-Dec-11 01:51 349 7.2
2019-Dec-11 01:47 284 7.2
2019-Dec-11 01:41 280 0 gusting 4 7.2
2019-Dec-11 01:36 306 7.2
2019-Dec-11 01:33 305 7.2
2019-Dec-11 01:25 314 0 gusting 3 7.2
2019-Dec-11 01:21 304 0 gusting 4 7.2
2019-Dec-11 01:18 320 0 gusting 4 7.8
2019-Dec-11 01:11 321 0 gusting 4 7.8
2019-Dec-11 01:05 314 1 gusting 7 7.8
2019-Dec-11 01:03 323 1 gusting 7 7.8
2019-Dec-11 00:56 320 2 gusting 7 8.3
2019-Dec-11 00:51 287 3 gusting 9 8.9
2019-Dec-11 00:47 316 4 gusting 9 9.4
2019-Dec-11 00:40 297 2 gusting 8 11.1
2019-Dec-11 00:35 286 1 gusting 3 11.7
2019-Dec-11 00:32 305 0 gusting 3 11.7
2019-Dec-11 00:25 300 11.7
2019-Dec-11 00:21 278 11.7
2019-Dec-11 00:17 278 11.7
2019-Dec-11 00:10 257 11.7
2019-Dec-11 00:05 257 11.7
2019-Dec-11 00:01 203 11.7
2019-Dec-10 23:55 312 11.7
2019-Dec-10 23:51 079 11.7
2019-Dec-10 23:48 080 11.7
2019-Dec-10 23:40 333 11.7
2019-Dec-10 23:35 037 11.7
2019-Dec-10 23:32 127 11.7
2019-Dec-10 23:25 236 11.7
2019-Dec-10 23:20 221 11.7
2019-Dec-10 23:17 221 11.7
2019-Dec-10 23:10 213 11.7
2019-Dec-10 23:05 156 11.7
2019-Dec-10 23:03 264 11.7
2019-Dec-10 22:55 215 11.7
2019-Dec-10 22:50 293 11.7
2019-Dec-10 22:46 217 11.7
2019-Dec-10 22:40 103 11.7
2019-Dec-10 22:35 300 11.7
2019-Dec-10 22:32 238 11.7
2019-Dec-10 22:25 042 11.7
2019-Dec-10 22:20 271 0 gusting 4 11.7
2019-Dec-10 22:17 238 11.7
2019-Dec-10 22:10 218 11.7
2019-Dec-10 22:05 109 11.7
2019-Dec-10 22:02 106 11.7
2019-Dec-10 21:55 009 11.7
2019-Dec-10 21:52 093 11.7
2019-Dec-10 21:46 205 11.7
2019-Dec-10 21:41 206 0 gusting 3 11.7
2019-Dec-10 21:35 228 11.7
2019-Dec-10 21:31 100 11.7
2019-Dec-10 21:25 075 11.7
2019-Dec-10 21:20 264 12.2
2019-Dec-10 21:16 155 12.2
2019-Dec-10 21:10 169 12.2
2019-Dec-10 21:05 226 12.2
2019-Dec-10 21:01 229 12.2
2019-Dec-10 20:55 261 0 gusting 2 12.2
2019-Dec-10 20:50 290 12.2
2019-Dec-10 20:46 214 12.2
2019-Dec-10 20:40 256 12.2
2019-Dec-10 20:36 189 12.2
2019-Dec-10 20:30 291 12.2
2019-Dec-10 20:25 205 12.2
2019-Dec-10 20:20 133 12.2
2019-Dec-10 20:16 153 12.8
2019-Dec-10 20:10 150 12.8
2019-Dec-10 20:05 211 12.8
2019-Dec-10 20:01 195 12.8
2019-Dec-10 19:55 237 12.8
2019-Dec-10 19:50 350 12.8
2019-Dec-10 19:46 351 12.8
2019-Dec-10 19:40 143 12.8
2019-Dec-10 19:35 296 12.8
2019-Dec-10 19:30 046 12.8
2019-Dec-10 19:25 347 12.8
2019-Dec-10 19:20 177 12.8
2019-Dec-10 19:16 249 13.3
2019-Dec-10 19:10 141 13.3
2019-Dec-10 19:05 342 13.3
2019-Dec-10 19:00 195 13.3
2019-Dec-10 18:55 011 13.3
2019-Dec-10 18:50 223 13.9
2019-Dec-10 18:46 082 13.9
2019-Dec-10 18:40 206 0 gusting 3 13.9
2019-Dec-10 18:35 343 13.9
2019-Dec-10 18:31 290 13.9
2019-Dec-10 18:25 214 13.9
2019-Dec-10 18:20 273 13.9
2019-Dec-10 18:10 116 13.9
2019-Dec-10 18:02 066 14.4
2019-Dec-10 17:55 203 0 gusting 6 14.4
2019-Dec-10 17:50 056 14.4
2019-Dec-10 17:45 127 14.4
2019-Dec-10 17:40 099 0 gusting 3 14.4
2019-Dec-10 17:31 291 0 gusting 4 14.4
2019-Dec-10 17:25 293 14.4
2019-Dec-10 17:20 328 14.4
2019-Dec-10 17:10 348 14.4
2019-Dec-10 17:05 240 14.4
2019-Dec-10 17:00 240 14.4
2019-Dec-10 16:50 248 15.0
2019-Dec-10 16:46 207 15.0
2019-Dec-10 16:40 233 15.0
2019-Dec-10 16:35 060 15.0
2019-Dec-10 16:25 231 0 gusting 3 14.4
2019-Dec-10 16:20 148 14.4
2019-Dec-10 16:15 268 14.4
2019-Dec-10 16:10 265 14.4
2019-Dec-10 16:05 252 14.4
2019-Dec-10 16:00 093 0 gusting 4 14.4
2019-Dec-10 15:55 311 14.4
2019-Dec-10 15:50 297 14.4
2019-Dec-10 15:45 165 14.4
2019-Dec-10 15:40 231 14.4
2019-Dec-10 15:35 134 0 gusting 4 14.4
2019-Dec-10 15:30 247 14.4
2019-Dec-10 15:20 036 14.4
2019-Dec-10 15:17 162 13.9
2019-Dec-10 15:10 241 0 gusting 4 13.9
2019-Dec-10 15:06 115 0 gusting 2 14.4
2019-Dec-10 15:01 263 13.9
2019-Dec-10 14:55 139 13.9
2019-Dec-10 14:50 227 0 gusting 3 13.9
2019-Dec-10 14:47 319 13.9
2019-Dec-10 14:40 120 13.9
2019-Dec-10 14:36 229 13.9
2019-Dec-10 14:32 238 13.9
2019-Dec-10 14:26 273 13.3
2019-Dec-10 14:20 215 0 gusting 2 13.3
2019-Dec-10 14:18 134 13.3
2019-Dec-10 14:11 161 13.3
2019-Dec-10 14:05 171 13.3
2019-Dec-10 14:01 201 13.3
2019-Dec-10 13:55 132 13.3
2019-Dec-10 13:51 219 13.3
2019-Dec-10 13:47 119 13.3
2019-Dec-10 13:41 157 13.3
2019-Dec-10 13:37 221 13.3
2019-Dec-10 13:26 001 12.8
2019-Dec-10 13:20 179 12.8
2019-Dec-10 13:16 136 12.8
2019-Dec-10 13:10 104 12.8
2019-Dec-10 13:06 170 12.8
2019-Dec-10 13:01 188 12.8
2019-Dec-10 12:55 233 12.8
2019-Dec-10 12:50 220 0 gusting 3 12.8
2019-Dec-10 12:46 089 12.8
2019-Dec-10 12:40 034 12.8
2019-Dec-10 12:36 237 12.8
2019-Dec-10 12:32 068 12.8
2019-Dec-10 12:25 237 12.8
2019-Dec-10 12:20 278 12.8
2019-Dec-10 12:16 094 12.8
2019-Dec-10 12:10 234 12.8
2019-Dec-10 12:05 144 12.8
2019-Dec-10 12:02 138 12.8
2019-Dec-10 11:55 257 12.8
2019-Dec-10 11:50 089 0 gusting 2 12.8
2019-Dec-10 11:47 264 12.8
2019-Dec-10 11:40 271 12.8
2019-Dec-10 11:35 160 12.8
2019-Dec-10 11:32 103 12.8
2019-Dec-10 11:25 250 12.8
2019-Dec-10 11:20 252 12.8
2019-Dec-10 11:16 129 12.8
2019-Dec-10 11:10 224 12.8
2019-Dec-10 11:06 116 0 gusting 5 12.8
2019-Dec-10 11:01 243 0 gusting 5 12.8
2019-Dec-10 10:56 155 12.8
2019-Dec-10 10:50 205 12.8
2019-Dec-10 10:47 270 12.8
2019-Dec-10 10:40 360 12.8
2019-Dec-10 10:35 282 12.8
2019-Dec-10 10:32 020 12.8
2019-Dec-10 10:25 258 12.8
2019-Dec-10 10:20 279 0 gusting 3 12.8
2019-Dec-10 10:16 170 0 gusting 3 12.8
2019-Dec-10 10:10 264 12.8
2019-Dec-10 10:05 211 12.8
2019-Dec-10 10:01 240 0 gusting 2 12.8
2019-Dec-10 09:55 086 0 gusting 3 12.8
2019-Dec-10 09:50 259 0 gusting 6 12.8
2019-Dec-10 09:47 101 1 gusting 6 12.8
2019-Dec-10 09:40 030 12.8
2019-Dec-10 09:35 222 0 gusting 3 12.8
2019-Dec-10 09:31 197 0 gusting 4 12.8
2019-Dec-10 09:25 103 0 gusting 3 12.8
2019-Dec-10 09:20 151 12.8
2019-Dec-10 09:17 333 0 gusting 4 12.8
2019-Dec-10 09:10 260 0 gusting 3 12.8
2019-Dec-10 09:05 274 0 gusting 3 12.8
2019-Dec-10 09:01 220 0 gusting 4 12.8
2019-Dec-10 08:55 223 0 gusting 4 12.8
2019-Dec-10 08:50 258 12.8
2019-Dec-10 08:46 218 0 gusting 5 12.8
2019-Dec-10 08:40 257 12.8
2019-Dec-10 08:35 097 12.8
2019-Dec-10 08:31 237 0 gusting 4 12.8
2019-Dec-10 08:25 203 0 gusting 4 12.8
2019-Dec-10 08:20 018 0 gusting 4 12.8
2019-Dec-10 08:16 262 0 gusting 4 12.8
2019-Dec-10 08:10 228 1 gusting 4 12.8
2019-Dec-10 08:05 210 0 gusting 5 12.8
2019-Dec-10 08:01 164 0 gusting 5 12.8
2019-Dec-10 07:55 240 0 gusting 4 12.8
2019-Dec-10 07:50 255 0 gusting 6 12.8
2019-Dec-10 07:45 162 1 gusting 6 12.8
2019-Dec-10 07:40 187 0 gusting 4 12.8
2019-Dec-10 07:35 264 0 gusting 4 12.8
2019-Dec-10 07:30 235 0 gusting 3 12.8
2019-Dec-10 07:25 251 12.8
2019-Dec-10 07:20 207 1 gusting 5 12.8
2019-Dec-10 07:15 082 12.8
2019-Dec-10 07:10 214 12.8
2019-Dec-10 07:05 233 0 gusting 3 12.8
2019-Dec-10 07:01 129 12.8
2019-Dec-10 06:55 237 13.3
2019-Dec-10 06:50 181 0 gusting 2 13.3
2019-Dec-10 06:46 214 13.3
2019-Dec-10 06:40 227 0 gusting 5 13.3
2019-Dec-10 06:35 227 0 gusting 5 13.3
2019-Dec-10 06:31 089 13.3
2019-Dec-10 06:25 250 13.3
2019-Dec-10 06:20 201 0 gusting 4 13.3
2019-Dec-10 06:15 255 13.3
2019-Dec-10 06:10 283 13.3
2019-Dec-10 06:05 124 0 gusting 5 13.3
2019-Dec-10 06:00 145 0 gusting 5 13.3
2019-Dec-10 05:55 207 0 gusting 6 13.3
2019-Dec-10 05:50 246 1 gusting 6 13.3
2019-Dec-10 05:45 355 13.9
2019-Dec-10 05:40 229 13.9
2019-Dec-10 05:35 015 1 gusting 9 13.9
2019-Dec-10 05:30 243 0 gusting 9 13.9
2019-Dec-10 05:25 216 13.9
2019-Dec-10 05:20 166 0 gusting 4 13.9
2019-Dec-10 05:15 345 0 gusting 3 13.9
2019-Dec-10 05:10 288 13.9
2019-Dec-10 05:05 190 13.9
2019-Dec-10 04:55 314 1 gusting 2 13.9
2019-Dec-10 04:50 134 13.9
2019-Dec-10 04:40 283 13.9
2019-Dec-10 04:35 187 13.9
2019-Dec-10 04:30 166 0 gusting 4 13.9
2019-Dec-10 04:25 217 0 gusting 5 13.9
2019-Dec-10 04:20 217 1 gusting 6 13.9
2019-Dec-10 04:15 168 2 gusting 6 13.9
2019-Dec-10 04:10 212 0 gusting 6 13.9
2019-Dec-10 04:05 024 2 gusting 6 13.9
2019-Dec-10 03:55 143 0 gusting 5 13.9
2019-Dec-10 03:50 107 0 gusting 10 13.9
2019-Dec-10 03:40 153 0 gusting 8 13.9
2019-Dec-10 03:35 189 2 gusting 8 13.9
2019-Dec-10 03:30 110 0 gusting 6 13.9
2019-Dec-10 03:25 333 1 gusting 6 13.3
2019-Dec-10 03:20 174 1 gusting 6 13.3
2019-Dec-10 03:15 104 0 gusting 6 13.3
2019-Dec-10 03:06 205 13.3
2019-Dec-10 03:01 086 0 gusting 4 13.3
2019-Dec-10 02:55 232 13.3
2019-Dec-10 02:51 086 1 gusting 5 13.3
2019-Dec-10 02:46 148 13.3
2019-Dec-10 02:41 355 0 gusting 7 13.3
2019-Dec-10 02:35 146 0 gusting 7 13.3
2019-Dec-10 02:32 080 0 gusting 5 12.8
2019-Dec-10 02:26 257 0 gusting 5 12.8
2019-Dec-10 02:21 286 1 gusting 5 12.8
2019-Dec-10 02:16 213 0 gusting 5 12.8
2019-Dec-10 02:10 178 0 gusting 4 12.8
2019-Dec-10 02:05 295 12.8
2019-Dec-10 02:02 304 0 gusting 6 12.8
2019-Dec-10 01:55 132 12.8
2019-Dec-10 01:50 168 12.8
2019-Dec-10 01:46 218 0 gusting 8 12.8
2019-Dec-10 01:41 171 0 gusting 3 12.8
2019-Dec-10 01:35 219 0 gusting 4 12.8
2019-Dec-10 01:31 346 0 gusting 4 12.8
2019-Dec-10 01:25 147 12.8
2019-Dec-10 01:20 195 12.8
2019-Dec-10 01:16 134 12.8
2019-Dec-10 01:10 295 12.8
2019-Dec-10 01:05 149 0 gusting 3 12.8
2019-Dec-10 01:00 136 12.8
2019-Dec-10 00:55 139 0 gusting 4 12.8
2019-Dec-10 00:50 210 0 gusting 4 12.8
2019-Dec-10 00:46 257 0 gusting 8 12.2
2019-Dec-10 00:40 113 0 gusting 8 12.2
2019-Dec-10 00:35 222 12.2
2019-Dec-10 00:31 252 12.2
2019-Dec-10 00:25 159 0 gusting 3 12.2
2019-Dec-10 00:20 172 12.2
2019-Dec-10 00:16 131 12.2
2019-Dec-10 00:10 084 12.2
2019-Dec-10 00:05 110 0 gusting 4 12.2
2019-Dec-10 00:01 104 12.2
2019-Dec-09 23:55 213 12.2
2019-Dec-09 23:50 148 12.2
2019-Dec-09 23:45 192 12.2
2019-Dec-09 23:40 210 12.2
2019-Dec-09 23:35 103 12.2
2019-Dec-09 23:31 216 12.2
2019-Dec-09 23:25 202 12.2
2019-Dec-09 23:20 167 0 gusting 2 12.2
2019-Dec-09 23:15 215 0 gusting 3 12.2
2019-Dec-09 23:10 101 12.2
2019-Dec-09 23:05 200 0 gusting 6 12.2
2019-Dec-09 23:00 217 12.2
2019-Dec-09 22:55 122 12.2
2019-Dec-09 22:50 018 12.2
2019-Dec-09 22:45 232 0 gusting 3 12.2
2019-Dec-09 22:40 149 12.2
2019-Dec-09 22:35 150 0 gusting 3 12.2
2019-Dec-09 22:30 009 12.2
2019-Dec-09 22:25 093 0 gusting 4 12.2
2019-Dec-09 22:20 127 0 gusting 4 12.2
2019-Dec-09 22:15 255 0 gusting 3 12.2
2019-Dec-09 22:10 154 0 gusting 2 12.2
2019-Dec-09 22:05 104 0 gusting 2 11.7
2019-Dec-09 22:00 118 0 gusting 3 11.7